Location: Cueva de Ratón
(10.1013°N, 67.6606°W)
Time: 09:24:28
(UTC+00:00)

SKYMED 2 - Pass Details

Date: 02 December 2023
Orbit: 621 x 623 km, 97.9° (Epoch: 27 February)

Event Time Altitude Azimuth Distance (km) Brightness Sun altitude
Rises 22:14:44 0° 12° (NNE) 2,893 6.7 -2.5°
Reaches altitude 10° 22:16:55 10° 12° (NNE) 1,988 5.8 -3.0°
Maximum altitude 22:21:15 87° 102° (ESE) 627 3.6 -4.0°
Drops below altitude 10° 22:25:35 10° 191° (S) 1,990 6.6 -5.0°
Sets 22:27:39 0° 191° (S) 2,848 7.5 -5.5°
